Wind_Speed
3 8 13 18 25 29 28 24 20 25 29 27 26 24 22 20 18 17 15 15 15 16 16 18 20 22 24 26 28 30 31 33 35 38 41 44 46 48 50 52 55 59 63 67
8 8 10 14 20 23 21 22 25 29 30 28 26 24 21 19 16 15 14 14 14 14 15 17 19 21 24 26 28 29 32 35 38 40 43 45 47 49 51 55 59 63 66 67
13 13 13 13 17 21 23 25 26 25 24 23 21 20 18 17 15 15 15 15 15 16 17 18 20 22 24 26 28 31 34 37 40 43 45 46 48 50 54 58 62 65 65 64
15 15 14 15 17 19 21 21 21 21 19 19 18 17 17 16 16 17 17 17 16 17 18 19 20 22 24 27 30 33 36 39 42 44 45 47 49 53 57 61 64 63 62 63
13 13 13 13 15 16 17 18 19 20 19 18 18 17 16 16 16 16 16 16 17 18 19 20 22 24 27 29 32 35 39 41 43 44 45 48 52 56 59 61 61 60 62 65
10 10 10 10 11 13 15 16 17 17 18 18 18 17 17 17 15 15 15 17 18 19 20 22 24 26 29 32 34 37 38 40 41 43 47 51 55 58 59 58 58 60 65 70
6 6 6 7 8 10 12 14 16 17 18 18 18 18 18 17 16 17 18 18 19 20 21 23 26 28 30 32 34 36 37 40 43 46 50 54 56 56 55 56 59 63 68 73
6 5 6 6 8 10 11 12 14 16 17 17 18 17 17 17 17 17 18 18 19 21 23 25 27 29 31 33 35 37 40 43 46 49 52 53 52 52 55 58 62 66 71 77
9 9 8 8 9 10 11 11 12 14 15 15 15 15 15 15 16 17 18 19 21 23 25 27 29 31 32 34 37 39 42 45 47 49 50 49 51 54 57 61 65 70 75 81
12 12 11 10 11 10 10 10 10 11 12 12 13 13 14 15 16 18 19 21 22 23 25 27 30 32 34 36 38 40 43 45 46 46 47 50 53 56 60 64 69 75 80 86
15 14 13 12 12 12 11 11 11 12 12 13 13 13 13 13 14 15 16 18 21 24 26 28 30 32 33 35 38 40 42 43 44 46 48 51 55 59 64 69 75 80 86 91
17 16 14 14 13 12 13 13 13 13 13 12 11 11 10 11 12 15 17 20 23 25 27 28 30 31 33 36 39 40 42 43 45 47 50 53 57 63 69 75 81 86 91 95
17 17 16 14 14 13 13 14 14 13 12 10 10 10 11 12 15 17 20 22 24 25 27 28 30 33 35 37 39 41 43 44 46 49 52 56 61 66 72 78 84 89 93 97
17 16 16 15 14 13 12 12 11 11 10 10 11 12 14 16 18 21 23 24 25 26 28 30 32 34 36 39 41 42 43 45 48 52 56 61 66 71 76 81 86 90 94 95
15 16 15 13 12 12 11 10 10 9 10 11 14 16 18 21 22 24 25 26 27 28 30 32 34 36 38 40 41 43 45 48 52 56 60 66 71 76 81 85 89 92 93 85
14 15 14 13 13 13 12 12 12 13 14 16 18 21 23 24 25 26 27 27 28 30 31 33 36 38 40 41 42 45 48 52 56 60 65 71 76 80 84 87 91 91 84 74
15 15 15 15 14 15 15 16 16 18 20 22 23 25 25 25 26 26 27 28 29 30 33 36 38 40 41 42 45 48 51 55 60 65 70 75 79 83 86 89 90 84 73 65
16 15 16 16 17 17 18 19 20 22 23 24 25 25 25 25 25 26 27 28 30 33 36 38 39 40 42 44 47 51 55 60 65 70 74 78 82 85 87 89 84 73 64 55
17 17 18 19 20 20 20 21 23 23 24 24 25 25 25 25 25 26 28 31 34 36 37 38 39 40 43 46 50 55 60 65 69 73 77 81 84 86 87 83 73 63 54 46
21 21 22 22 22 22 22 23 24 24 25 25 25 24 24 25 26 28 31 33 35 36 37 37 39 42 46 50 55 60 64 69 73 77 80 83 85 86 82 73 62 54 45 36
24 25 25 25 25 25 24 24 24 24 24 24 24 25 25 26 29 31 33 34 34 35 36 38 42 46 51 56 60 64 68 72 76 80 82 84 85 81 72 62 54 46 36 27
25 26 26 26 25 25 24 24 23 23 24 25 25 26 27 29 30 31 31 32 33 35 38 42 46 51 56 60 64 68 72 76 79 82 84 85 80 70 61 53 47 37 27 17
24 25 25 25 25 24 24 24 24 25 25 26 26 27 28 28 28 29 30 32 35 39 43 47 52 56 60 64 68 72 75 79 82 84 84 79 69 59 52 45 37 27 17 7
23 23 24 24 24 24 25 25 25 25 25 26 26 26 25 26 27 30 33 36 40 44 48 52 56 61 65 68 72 75 78 81 84 84 77 67 58 52 45 36 27 18 7 2
22 22 23 23 23 23 23 23 23 23 23 23 22 23 25 28 31 34 38 42 46 49 53 58 62 65 68 71 74 78 81 85 83 74 65 58 52 45 36 27 17 7 4 11
21 21 21 20 20 20 20 20 20 20 20 22 24 26 29 32 36 40 44 47 51 55 58 62 65 68 71 74 77 81 84 81 72 63 57 52 45 37 27 17 8 5 12 18
19 18 18 17 17 18 18 19 20 21 23 25 28 31 34 38 41 45 48 52 55 58 61 64 67 70 73 77 81 83 78 69 62 57 52 46 38 28 17 7 6 14 20 23
Wind_Direction
138 188 197 194 194 191 187 180 170 163 162 168 174 181 187 193 198 203 209 217 223 230 237 245 252 257 262 267 271 276 280 283 287 289 292 293 294 294 295 296 298 300 302 304
100 133 162 177 180 178 174 165 156 159 161 169 176 183 186 190 196 202 211 220 230 241 249 255 260 264 267 271 275 279 283 286 289 292 294 294 295 296 297 299 301 303 305 306
101 105 121 135 147 149 146 143 148 155 162 171 180 188 193 199 207 217 226 235 243 253 260 264 265 267 270 275 279 282 286 289 291 293 294 294 295 297 299 301 303 305 306 307
112 114 123 125 137 145 150 155 163 168 174 182 191 198 206 214 222 230 237 244 252 260 263 265 268 271 275 280 283 287 289 291 291 292 293 295 297 299 302 304 305 306 307 308
124 123 127 134 143 153 161 169 177 183 190 196 203 209 214 222 228 234 243 252 259 264 266 269 273 277 280 284 286 288 289 290 291 293 295 297 300 302 304 305 306 307 309 309
137 137 141 150 161 171 181 188 196 203 210 215 221 226 229 234 241 251 258 261 264 267 271 274 278 281 283 285 287 288 290 291 293 295 297 299 301 303 305 307 308 309 309 310
156 153 161 174 182 193 205 210 214 219 225 230 234 237 241 248 256 260 262 264 268 272 275 278 280 282 283 285 286 288 290 292 294 297 299 301 303 305 307 308 309 310 311 313
187 190 203 209 210 213 219 221 220 222 225 230 235 240 246 252 258 262 266 269 273 276 279 281 282 283 284 286 288 290 292 295 297 299 301 303 305 306 308 309 310 312 314 316
204 212 217 220 220 221 225 227 226 225 226 230 234 239 246 254 261 267 271 274 276 279 281 283 284 286 287 289 291 293 296 298 300 302 303 305 307 308 309 310 312 315 316 317
214 221 222 221 219 222 227 230 232 234 236 238 242 248 255 261 267 271 274 277 280 282 284 285 287 288 290 292 294 296 298 300 302 304 306 307 308 309 311 313 315 316 317 318
218 225 224 224 227 233 237 239 240 242 244 246 250 254 260 266 271 276 280 283 285 286 287 288 289 290 292 294 296 298 301 303 305 306 308 309 311 313 315 316 317 318 319 321
219 227 227 230 236 241 241 240 241 243 245 247 246 250 258 267 275 281 285 287 288 288 289 290 291 293 295 297 300 302 304 305 307 308 309 312 314 316 318 318 319 320 322 323
225 229 231 235 238 238 235 235 237 237 235 237 243 255 266 276 284 289 292 293 293 292 292 292 294 296 299 302 304 305 306 307 308 310 312 314 316 317 319 320 321 323 324 325
222 224 226 229 231 230 227 224 224 225 231 245 259 271 279 286 292 296 297 296 295 294 294 296 298 300 302 305 306 307 308 309 310 312 314 316 317 318 320 322 323 324 325 326
214 215 215 216 214 212 211 214 221 234 255 269 278 283 287 291 295 296 296 295 293 294 295 297 300 302 305 307 308 309 310 311 312 314 315 317 318 320 322 323 324 325 326 326
206 206 206 207 209 212 217 227 241 257 271 279 283 285 288 291 292 293 293 293 293 294 296 299 302 305 307 309 310 311 312 313 314 315 316 318 319 321 322 324 325 326 326 325
205 206 209 213 219 227 236 246 257 267 275 279 282 285 287 288 289 290 291 293 294 296 299 302 305 307 310 311 312 313 313 314 315 317 318 319 320 322 323 324 326 326 325 324
210 214 220 227 235 244 253 261 267 273 277 280 283 285 286 287 289 290 292 294 296 299 302 305 307 310 312 313 313 314 315 316 317 317 318 320 321 322 323 325 326 326 325 325
223 229 234 240 246 253 260 266 272 276 280 283 286 287 288 289 290 292 294 296 299 303 306 308 311 313 313 314 314 315 316 316 317 319 320 321 321 322 324 326 326 325 325 325
236 241 245 249 255 260 265 269 273 277 281 284 286 287 288 290 291 293 296 299 303 306 309 311 313 314 314 315 315 315 316 318 320 321 321 321 322 324 325 326 325 326 325 324
242 246 250 255 259 263 266 269 273 277 280 282 284 286 288 291 293 296 300 303 306 309 311 313 314 314 314 315 315 317 319 321 321 321 320 321 323 325 325 325 325 326 324 323
246 249 252 255 258 261 264 268 272 276 279 282 284 287 290 293 296 300 303 306 309 311 312 313 314 314 315 317 318 320 321 321 321 320 320 322 324 325 325 325 325 325 323 321
250 250 252 254 256 259 263 267 271 275 279 282 285 288 292 296 300 303 306 309 311 312 313 314 315 317 318 320 321 321 321 321 320 320 321 323 324 324 325 325 324 323 319 316
249 250 251 254 257 260 264 269 273 277 280 284 287 291 296 299 302 305 308 310 312 313 314 316 318 320 321 321 321 321 321 320 320 321 323 323 324 324 324 323 321 318 308 169
248 251 253 256 259 263 267 270 274 277 281 285 290 295 298 301 305 307 309 311 312 314 316 318 320 320 320 320 320 320 320 320 321 323 323 324 324 324 322 320 315 303 182 151
246 249 252 255 260 263 267 270 273 278 284 290 294 298 301 304 306 308 309 312 314 316 318 319 319 319 320 320 320 320 321 322 323 323 324 325 324 322 319 312 295 189 158 149
241 245 250 254 259 263 267 272 278 284 290 294 297 301 303 305 307 309 311 314 316 317 318 318 319 319 320 320 320 321 322 323 324 325 325 325 324 321 314 289 186 160 153 148
Height
5560 5562 5564 5567 5571 5575 5580 5587 5595 5603 5612 5623 5631 5638 5644 5649 5654 5658 5662 5665 5668 5670 5672 5673 5674 5675 5675 5675 5675 5674 5673 5671 5668 5666 5662 5658 5654 5649 5644 5638 5632 5625 5617 5608
5564 5565 5567 5570 5574 5579 5584 5590 5597 5605 5614 5623 5630 5637 5642 5647 5651 5655 5658 5661 5663 5665 5666 5667 5668 5669 5668 5668 5667 5666 5665 5663 5660 5657 5653 5648 5644 5639 5633 5626 5619 5611 5603 5593
5570 5570 5573 5576 5579 5584 5590 5596 5603 5610 5618 5625 5632 5637 5641 5644 5648 5651 5654 5656 5658 5659 5660 5661 5662 5662 5661 5661 5660 5658 5657 5654 5651 5647 5643 5638 5633 5628 5621 5614 5606 5597 5587 5578
5576 5578 5580 5584 5585 5590 5595 5601 5606 5613 5619 5625 5630 5635 5638 5642 5645 5647 5650 5652 5653 5654 5654 5655 5655 5655 5654 5653 5652 5651 5648 5645 5641 5637 5633 5628 5622 5616 5609 5601 5592 5582 5573 5564
5581 5583 5585 5588 5591 5594 5598 5603 5608 5613 5619 5624 5628 5632 5635 5638 5640 5643 5645 5646 5647 5648 5648 5648 5648 5648 5647 5646 5645 5642 5639 5636 5631 5627 5622 5617 5611 5604 5596 5587 5578 5569 5559 5549
5584 5586 5589 5593 5595 5597 5602 5605 5609 5613 5617 5621 5625 5628 5632 5633 5635 5638 5639 5640 5641 5641 5642 5642 5641 5641 5640 5639 5636 5633 5630 5626 5622 5617 5612 5606 5599 5591 5583 5574 5565 5556 5545 5534
5586 5588 5590 5593 5595 5598 5603 5606 5608 5611 5614 5617 5621 5624 5627 5629 5630 5632 5633 5634 5635 5635 5636 5635 5635 5634 5632 5630 5628 5624 5621 5616 5612 5607 5600 5593 5586 5578 5570 5562 5553 5544 5533 5521
5586 5588 5593 5593 5595 5598 5600 5602 5605 5608 5611 5614 5617 5619 5622 5623 5625 5626 5627 5628 5629 5629 5629 5628 5627 5626 5624 5621 5618 5615 5611 5606 5601 5595 5588 5581 5574 5566 5558 5549 5540 5530 5519 5506
5586 5589 5590 5591 5593 5595 5597 5600 5602 5604 5607 5610 5612 5614 5616 5618 5620 5621 5622 5622 5623 5622 5622 5621 5619 5617 5615 5612 5609 5605 5600 5595 5590 5583 5576 5569 5562 5554 5546 5536 5527 5516 5505 5492
5583 5585 5587 5589 5591 5593 5596 5598 5600 5602 5604 5606 5608 5610 5612 5613 5615 5615 5616 5616 5616 5615 5614 5613 5611 5609 5606 5603 5599 5595 5590 5585 5578 5572 5565 5558 5550 5542 5533 5523 5513 5501 5489 5476
5580 5582 5585 5587 5589 5591 5593 5595 5597 5599 5601 5603 5605 5606 5608 5609 5610 5610 5610 5610 5609 5608 5607 5605 5603 5600 5597 5594 5590 5585 5580 5574 5568 5562 5555 5547 5538 5528 5519 5508 5496 5485 5471 5456
5577 5580 5582 5585 5586 5588 5590 5592 5595 5596 5598 5600 5601 5603 5604 5605 5605 5605 5605 5604 5603 5601 5599 5597 5595 5592 5589 5585 5580 5575 5569 5564 5557 5551 5543 5535 5526 5516 5504 5493 5479 5464 5448 5432
5574 5576 5579 5581 5583 5585 5587 5589 5591 5593 5595 5597 5599 5600 5600 5601 5601 5600 5599 5598 5596 5594 5592 5589 5587 5583 5579 5575 5570 5565 5559 5553 5546 5539 5531 5523 5514 5505 5493 5479 5461 5444 5429 5413
5570 5573 5575 5577 5580 5582 5584 5586 5588 5591 5593 5594 5595 5596 5596 5596 5595 5594 5592 5590 5588 5586 5584 5581 5578 5574 5570 5565 5560 5555 5549 5542 5535 5528 5519 5511 5501 5491 5479 5465 5450 5432 5413 5397
5567 5570 5573 5575 5577 5580 5582 5584 5586 5588 5589 5590 5591 5591 5590 5590 5589 5587 5585 5583 5581 5578 5576 5572 5569 5565 5560 5555 5550 5544 5538 5531 5524 5516 5507 5497 5487 5475 5462 5447 5432 5417 5401 5384
5565 5567 5570 5573 5575 5577 5579 5581 5583 5584 5585 5585 5585 5585 5584 5583 5581 5579 5577 5575 5573 5570 5567 5563 5560 5555 5550 5545 5540 5534 5527 5520 5512 5504 5494 5483 5472 5459 5445 5430 5415 5400 5385 5372
5563 5565 5568 5570 5572 5574 5576 5577 5578 5579 5579 5579 5578 5578 5576 5575 5573 5571 5569 5567 5565 5562 5558 5554 5550 5545 5540 5535 5529 5523 5516 5508 5500 5491 5480 5469 5456 5442 5428 5414 5399 5384 5370 5358
5560 5563 5565 5567 5568 5570 5571 5572 5572 5573 5572 5572 5571 5569 5568 5566 5565 5563 5561 5559 5556 5553 5549 5545 5540 5536 5531 5525 5519 5512 5504 5496 5487 5477 5465 5453 5439 5426 5412 5398 5384 5370 5358 5347
5556 5558 5560 5561 5563 5564 5564 5565 5565 5565 5564 5564 5563 5561 5560 5559 5557 5555 5553 5550 5547 5544 5540 5536 5531 5526 5520 5514 5508 5501 5492 5483 5473 5461 5449 5436 5422 5409 5396 5382 5369 5357 5347 5339
5551 5552 5554 5555 5556 5557 5557 5557 5557 5557 5557 5556 5555 5554 5553 5551 5549 5547 5545 5542 5539 5535 5531 5526 5521 5516 5510 5504 5496 5488 5479 5469 5458 5445 5433 5420 5406 5393 5380 5367 5356 5346 5338 5331
5544 5546 5547 5548 5549 5550 5550 5550 5550 5550 5549 5549 5548 5547 5545 5544 5542 5539 5537 5533 5530 5526 5521 5517 5512 5506 5499 5492 5484 5475 5465 5453 5441 5429 5417 5404 5391 5378 5365 5354 5345 5337 5330 5325
5537 5539 5540 5541 5542 5542 5543 5543 5543 5543 5542 5542 5541 5540 5538 5536 5534 5531 5528 5525 5521 5517 5513 5508 5502 5496 5488 5480 5470 5460 5449 5438 5426 5413 5400 5388 5375 5363 5352 5343 5335 5328 5324 5321
5531 5532 5533 5534 5535 5535 5536 5536 5536 5536 5535 5535 5534 5532 5531 5528 5526 5523 5520 5517 5513 5509 5504 5498 5491 5484 5475 5465 5455 5445 5434 5422 5410 5397 5384 5371 5360 5350 5341 5333 5327 5322 5319 5318
5524 5525 5526 5527 5528 5528 5529 5529 5529 5529 5528 5527 5526 5524 5522 5520 5518 5515 5512 5508 5504 5499 5493 5486 5478 5470 5460 5451 5441 5430 5419 5407 5394 5380 5367 5356 5346 5338 5331 5325 5320 5317 5316 5316
5516 5518 5519 5520 5521 5521 5521 5521 5521 5521 5520 5519 5518 5517 5515 5513 5510 5507 5503 5499 5493 5487 5480 5473 5464 5456 5446 5437 5426 5415 5403 5390 5377 5364 5352 5343 5335 5328 5322 5318 5315 5314 5314 5316
5509 5510 5512 5513 5513 5514 5514 5514 5514 5514 5513 5512 5511 5509 5507 5504 5501 5497 5493 5487 5481 5475 5467 5459 5451 5442 5432 5422 5410 5398 5386 5372 5359 5348 5339 5331 5324 5318 5314 5311 5311 5312 5314 5316
5502 5503 5504 5506 5506 5507 5507 5507 5507 5506 5506 5504 5503 5500 5498 5495 5491 5486 5481 5475 5469 5461 5454 5446 5437 5428 5417 5406 5394 5381 5368 5356 5346 5336 5327 5320 5314 5309 5307 5306 5308 5311 5314 5318